This is the latest recevied weather packets stored in our database for station/object XE2OR-10. If no packets are shown the sender has not sent any weather packets the latest 10 day(s).
| Time | Temp. | Humidity | Pressure | Rain* | Wind** | Luminosity | Snow |
|---|---|---|---|---|---|---|---|
| 1777676329 | 21.67° C | 80% | 1015.9 hPa | 0 mm | - | 66 W/m² | - |
| 1777676033 | 22.22° C | 81% | 1015.8 hPa | 0 mm | - | 62 W/m² | - |
| 1777675729 | 21.67° C | 80% | 1015.6 hPa | 0 mm | - | 66 W/m² | - |
| 1777675433 | 21.67° C | 81% | 1015.6 hPa | 0 mm | - | 46 W/m² | - |
| 1777675129 | 22.22° C | 80% | 1015.7 hPa | 0 mm | - | 44 W/m² | - |
| 1777674829 | 22.22° C | 80% | 1015.7 hPa | 0 mm | - | 67 W/m² | - |
| 1777674530 | 22.22° C | 80% | 1015.5 hPa | 0 mm | - | 57 W/m² | - |
| 1777674233 | 22.78° C | 80% | 1015.2 hPa | 0 mm | - | 98 W/m² | - |
| 1777673929 | 22.22° C | 79% | 1015.3 hPa | 0 mm | - | 493 W/m² | - |
| 1777673632 | 22.78° C | 79% | 1015.1 hPa | 0 mm | - | 223 W/m² | - |
| 1777673329 | 22.78° C | 80% | 1015.1 hPa | 0 mm | - | 295 W/m² | - |
| 1777673029 | 22.78° C | 79% | 1014.8 hPa | 0 mm | - | 342 W/m² | - |
| 1777672729 | 23.33° C | 78% | 1015.1 hPa | 0 mm | - | 202 W/m² | - |
| 1777672432 | 23.33° C | 78% | 1014.9 hPa | 0 mm | - | 220 W/m² | - |
| 1777672129 | 23.33° C | 79% | 1015 hPa | 0 mm | - | 698 W/m² | - |
| 1777671832 | 23.33° C | 79% | 1014.9 hPa | 0 mm | - | 298 W/m² | - |
| 1777671529 | 22.78° C | 79% | 1015 hPa | 0 mm | - | 237 W/m² | - |
| 1777671229 | 23.33° C | 78% | 1015.1 hPa | 0 mm | - | 333 W/m² | - |
| 1777670929 | 23.33° C | 78% | 1014.9 hPa | 0 mm | - | 807 W/m² | - |
| 1777670632 | 23.33° C | 78% | 1015.2 hPa | 0 mm | - | 583 W/m² | - |
| 1777670329 | 23.33° C | 78% | 1015.1 hPa | 0 mm | - | 380 W/m² | - |
| 1777670033 | 22.78° C | 79% | 1015.2 hPa | 0 mm | - | 648 W/m² | - |
| 1777669729 | 22.78° C | 79% | 1015.3 hPa | 0 mm | - | 236 W/m² | - |
| 1777669429 | 23.33° C | 78% | 1015.5 hPa | 0 mm | - | 401 W/m² | - |
| 1777669129 | 22.78° C | 79% | 1015.2 hPa | 0 mm | - | 364 W/m² | - |
* Rain latest hour (hover to see other rain measurements)
** Current wind speed in m/s (hover to see current wind gust speed)